Doha, Qatar

3:48 AM +03 on September 24, 2017 (GMT +0300)
Doha International

Weather History for OTBD - October, 2013

Change the Weather History Date:

Saturday, October 5, 2013

  Actual Average Record
Temperature  
Mean Temperature 96 °F -  
Max Temperature 106 °F 93 °F 106 °F (2013)
Min Temperature 86 °F 73 °F 75 °F (2004)
Cooling Degree Days 31    
Growing Degree Days 46 (Base 50)    
Moisture  
Dew Point 62 °F    
Average Humidity 38    
Maximum Humidity 70    
Minimum Humidity 10    
Precipitation  
Precipitation 0.00 in 0.00 in - ()
Sea Level Pressure  
Sea Level Pressure 29.74 in    
Wind  
Wind Speed 6 mph ()    
Max Wind Speed 12 mph    
Max Gust Speed -    
Visibility 7.3 miles    
Events      
Averages and records for this station are not official NWS values.
T = Trace of Precipitation, MM = Missing Value Source: Averaged Metar Reports

Daily Weather History Graph

Daily Weather History Graph

Search for Another Location

Airport or City:

Trip Planner

Search our weather history database for the weather conditions in past years. The results will help you decide how hot, cold, wet, or windy it might be!

Date:

Astronomy

Oct. 05, 2013 Rise Set
Actual Time 5:27 AM +03 5:16 PM +03
Civil Twilight 5:04 AM +03 5:39 PM +03
Nautical Twilight 4:38 AM +03 6:05 PM +03
Astronomical Twilight 4:11 AM +03 6:32 PM +03
Moon 5:36 AM +03 (10/5) 5:28 PM +03 (10/5)
Length of Visible Light 12h 34m
Length of Day
11h 48m
New Moon, 0% of the Moon is Illuminated
Oct 5
New Moon
Oct 12
First Quarter
Oct 19
Full
Oct 27
Last Quarter
Nov 3
New

Hourly Weather History & Observations

Time (+03) Temp. Heat Index Dew Point Humidity Pressure Visibility Wind Dir Wind Speed Gust Speed Precip Events Conditions
12:00 AM 91.4 °F 95.4 °F 68.0 °F 46% 29.74 in - NNW 8.1 mph - N/A   Clear
1:00 AM 89.6 °F 92.2 °F 66.2 °F 46% 29.71 in - NW 5.8 mph - N/A   Clear
2:00 AM 91.4 °F 93.2 °F 64.4 °F 41% 29.71 in - NW 5.8 mph - N/A   Clear
3:00 AM 89 °F - 67 °F 38% 29.74 in 7 mi West 3.5 mph - -  
3:00 AM 89.6 °F 92.2 °F 66.2 °F 46% 29.71 in - West 3.5 mph - N/A   Clear
3:30 AM 89.6 °F 91.1 °F 64.4 °F 43% 29.71 in - NW 4.6 mph - N/A   Clear
4:00 AM 89.6 °F 91.1 °F 64.4 °F 43% 29.71 in - WNW 4.6 mph - N/A   Clear
4:30 AM 89.6 °F 91.1 °F 64.4 °F 43% 29.74 in - WNW 4.6 mph - N/A   Clear
5:00 AM 89.6 °F 91.1 °F 64.4 °F 43% 29.74 in - WNW 3.5 mph - N/A   Clear
6:00 AM 87.8 °F 89.4 °F 64.4 °F 46% 29.74 in - WNW 3.5 mph - N/A   Clear
6:30 AM 89.6 °F 92.2 °F 66.2 °F 46% 29.77 in - WNW 3.5 mph - N/A   Clear
7:00 AM 91.4 °F 94.0 °F 66.2 °F 43% 29.77 in - WNW 4.6 mph - N/A   Clear
7:30 AM 93.2 °F 96.2 °F 66.2 °F 41% 29.77 in - NW 4.6 mph - N/A   Clear
8:00 AM 95.0 °F 97.0 °F 64.4 °F 36% 29.77 in - WNW 5.8 mph - N/A   Clear
8:30 AM 96.8 °F 98.0 °F 62.6 °F 32% 29.80 in - WNW 4.6 mph - N/A   Clear
9:00 AM 99 °F - 61 °F 19% 29.80 in 6 mi NW 5.8 mph - -  
9:00 AM 98.6 °F 99.4 °F 60.8 °F 29% 29.80 in - NW 5.8 mph - N/A   Clear
9:30 AM 102.2 °F 101.4 °F 57.2 °F 22% 29.77 in - NW 5.8 mph - N/A   Clear
10:00 AM 102.2 °F 100.4 °F 53.6 °F 20% 29.77 in - NW 5.8 mph - N/A   Clear
10:30 AM 104.0 °F - 44.6 °F 13% 29.77 in - North 9.2 mph - N/A   Clear
11:00 AM 105.8 °F - 42.8 °F 12% 29.77 in - North 6.9 mph - N/A   Clear
11:30 AM 105.8 °F - 48.2 °F 14% 29.74 in - North 10.4 mph - N/A   Clear
12:00 PM 105.8 °F - 37.4 °F 10% 29.74 in - North 10.4 mph - N/A   Clear
12:30 PM 105.8 °F - 41.0 °F 11% 29.74 in - NNE 10.4 mph - N/A   Clear
1:00 PM 105.8 °F - 41.0 °F 11% 29.71 in - NNE 11.5 mph - N/A   Clear
1:30 PM 105.8 °F - 46.4 °F 14% 29.71 in - NNE 10.4 mph - N/A   Clear
2:00 PM 104.0 °F - 48.2 °F 15% 29.71 in - NE 11.5 mph - N/A   Clear
3:00 PM 102 °F - 54 °F 12% 29.70 in 10 mi NNE 11.5 mph - -  
3:00 PM 102.2 °F 100.4 °F 53.6 °F 20% 29.68 in - NNE 11.5 mph - N/A   Clear
3:30 PM 98.6 °F 101.0 °F 64.4 °F 32% 29.71 in - NE 10.4 mph - N/A   Clear
4:00 PM 98.6 °F 102.8 °F 66.2 °F 35% 29.71 in - NNE 10.4 mph - N/A   Clear
4:30 PM 96.8 °F 103.1 °F 69.8 °F 41% 29.71 in - NNE 10.4 mph - N/A   Clear
5:00 PM 93.2 °F 98.8 °F 69.8 °F 46% 29.71 in - NNE 10.4 mph - N/A   Clear
6:00 PM 89.6 °F 91.1 °F 64.4 °F 43% 29.71 in - North 11.5 mph - N/A   Clear
6:30 PM 89.6 °F 92.2 °F 66.2 °F 46% 29.71 in - North 9.2 mph - N/A   Clear
7:00 PM 89.6 °F 89.5 °F 60.8 °F 38% 29.74 in - North 6.9 mph - N/A   Clear
7:30 PM 89.6 °F 89.5 °F 60.8 °F 38% 29.74 in - NNE 5.8 mph - N/A   Clear
8:00 PM 89.6 °F 89.5 °F 60.8 °F 38% 29.74 in - NNE 4.6 mph - N/A   Clear
8:30 PM 87.8 °F 99.7 °F 77.0 °F 70% 29.74 in - NNE 5.8 mph - N/A   Clear
9:00 PM 88 °F - 77 °F 64% 29.75 in 6 mi NNE 5.8 mph - -  
9:00 PM 87.8 °F 99.7 °F 77.0 °F 70% 29.74 in - NNE 3.5 mph - N/A   Clear
9:30 PM 87.8 °F 99.7 °F 77.0 °F 70% 29.74 in - NNE 3.5 mph - N/A   Clear
10:00 PM 87.8 °F 99.7 °F 77.0 °F 70% 29.74 in - North 3.5 mph - N/A   Clear
10:30 PM 86.0 °F 95.1 °F 75.2 °F 70% 29.71 in - Variable 2.3 mph - N/A   Clear
11:00 PM 86.0 °F 95.1 °F 75.2 °F 70% 29.71 in - Calm Calm - N/A   Clear
11:30 PM 86.0 °F 93.4 °F 73.4 °F 66% 29.71 in - Calm Calm - N/A   Clear